Regional Weather Roundup
Issued by NWS Jackson, KY

Home | Current Version | Previous Version | Text Only | Print | Product List | Glossary On
Versions: 1 2 3 4 5 6 7 8 9 10 11 12 13 14 15 16 17 18 19 20 21 22 23 24 25 26 27 28 29 30 31 32 33 34 35 36 37 38 39 40 41 42 43 44 45 46 47 48 49 50
000
ASUS43 KJKL 240419
RWRJKL

EAST KENTUCKY HOURLY WEATHER ROUNDUP
NATIONAL WEATHER SERVICE JACKSON KY
1200 AM EDT THU JUL 24 2014

NOTE: "FAIR" INDICATES FEW OR NO CLOUDS BELOW 12,000 FEET WITH
NO SIGNIFICANT WEATHER AND/OR OBSTRUCTIONS TO VISIBILITY.

* THESE REPORTS ARE NOT UNDER NWS QUALITY CONTROL AND MAY NOT
  REPORT WEATHER SUCH AS PRECIPITATION AND FOG.

KYZ079-080-083-085-087-088-110-112-115-119-120-240500
...EASTERN KENTUCKY...

CITY           SKY/WX    TMP DP  RH WIND       PRES   REMARKS
JACKSON        CLOUDY    68  66  93 CALM      30.03R FOG
LONDON         LGT RAIN  71  68  90 CALM      30.02F
SOMERSET*      PTCLDY    68  68 100 CALM      30.02F FOG
MONTICELLO*    CLOUDY    71  71 100 CALM      30.02F FOG
MIDDLESBORO*   CLOUDY    71  68  90 CALM      30.02R
HARLAN APT*    CLOUDY    68  68 100 MISG      30.05R VSB 1/4
HAZARD APT*    PTCLDY    70  70 100 CALM      30.02  FOG
BLACK MTN*       N/A     66  63  88 N3          N/A
PIKEVILLE APT* RAIN      68  68 100 CALM      30.03S
BIG SANDY*     CLOUDY    69  69  99 SW3       30.02R FOG
MOREHEAD APT*  CLOUDY    73  70  88 SW6       30.03S
ASHLAND*       CLOUDY    73  64  73 W3        29.97R
$$

KYZ035-036-041-042-044-050-067-078-099-240500
...CENTRAL KENTUCKY...

CITY           SKY/WX    TMP DP  RH WIND       PRES   REMARKS
MT STERLING*   LGT RAIN  70  70 100 CALM      30.02F
FLEMING/MASON* CLOUDY    72  67  85 CALM      30.01S
DANVILLE*      CLOUDY    68  68 100 SW3       30.02R
RICHMOND*      CLOUDY    72  66  83 CALM      30.01S
LEXINGTON      MOCLDY    74  67  78 SE6       30.01R
FRANKFORT      MOCLDY    74  70  87 N5        29.98S
$$

KYZ091>093-OHZ055-061-077-WVZ005-015-034-035-042-240500
...SOUTHERN OHIO/WEST VIRGINIA...

CITY           SKY/WX    TMP DP  RH WIND       PRES   REMARKS
COVINGTON      LGT RAIN  70  66  88 N15       30.01S
COLUMBUS       CLOUDY    66  55  68 N14       30.04R
DAYTON         CLOUDY    66  62  87 NE7       30.07R
WILMINGTON     CLOUDY    66  62  87 NE15      30.02S
HUNTINGTON     CLOUDY    74  65  73 CALM      29.97S
CHARLESTON     RAIN      71  71 100 SW5       29.98F
PINEVILLE*     CLOUDY    72  72 100 MISG      30.08S FOG
BECKLEY        LGT RAIN  68  66  93 NE6       30.07S
BLUEFIELD      MOCLDY    71  65  81 W8        30.07F
$$

VAZ002-007-008-TNZ017-027-036-066-071-240500
...SOUTHWEST VIRGINIA/EAST TENNESSEE...

CITY           SKY/WX    TMP DP  RH WIND       PRES   REMARKS
WISE*          CLOUDY    68  66  94 CALM      30.10R
JONESVILLE*    FOG       68  68 100 CALM      30.05R VSB 1/4
ABINGDON*      PTCLDY    70  69  97 CALM      30.06S FOG
BRISTOL        MOCLDY    71  67  87 NW3       30.03R
KNOXVILLE      MOCLDY    72  70  93 S5        30.00S
OAK RIDGE      CLOUDY    74  71  91 CALM      30.02S
CROSSVILLE     CLOUDY    73  69  87 CALM      30.07F
NASHVILLE      MOCLDY    78  68  71 NE5       30.02R
$$

...KEY TO REMARKS...
VSB - VISIBILITY IN MILES
WCI - WIND CHILL INDEX
HX  - HEAT INDEX

$$



USA.gov is the U.S. government's official web portal to all federal, state and local government web resources and services.